EW4496 Weather Reports


Display with metric or nautical units.
time (UTC)temp
F
wind
direction
speed
MPH
gust
MPH
rain 1hr
in
rain 24hr
in
rain mn
in
humidity
%
barometer
mb
20260903220008 77 332 2.0 9.0 0.00 0.00 0.00 55 1011.8
20260903214513 76 15 0.0 9.0 0.00 0.00 0.00 57 1011.9
20260903213028 76 33 1.0 10.0 0.00 0.00 0.00 57 1012.1
20260903211523 76 20 2.0 13.0 0.00 0.00 0.00 56 1012.2
20260903210024 76 25 2.0 10.0 0.00 0.00 0.00 55 1012.1
20260903204525 76 317 2.0 10.0 0.00 0.00 0.00 56 1012.2
20260903203023 76 329 4.0 10.0 0.00 0.00 0.00 55 1012.4
20260903201524 76 3 1.0 7.0 0.00 0.00 0.00 56 1012.3
20260903200025 76 300 2.0 6.0 0.00 0.00 0.00 56 1012.6
20260903194523 77 340 2.0 9.0 0.00 0.00 0.00 54 1012.7
20260903193038 77 6 1.0 7.0 0.00 0.00 0.00 53 1012.9
20260903191540 76 359 1.0 6.0 0.00 0.00 0.00 55 1013.1
20260903190037 75 343 1.0 7.0 0.00 0.00 0.00 57 1013.2
20260903184538 76 288 1.0 11.0 0.00 0.00 0.00 58 1013.4
20260903183111 75 219 0.0 6.0 0.00 0.00 0.00 59 1013.5
20260903181610 73 331 0.0 6.0 0.00 0.00 0.00 63 1013.7
20260903180107 71 340 0.0 6.0 0.00 0.00 0.00 65 1013.7
20260903174607 71 286 1.0 6.0 0.00 0.00 0.00 66 1013.8
20260903173109 70 349 0.0 5.0 0.00 0.00 0.00 67 1013.9
20260903171620 68 300 0.0 3.0 0.00 0.00 0.00 70 1014.0
20260903170107 68 259 0.0 4.0 0.00 0.00 0.00 71 1014.1
20260903164522 68 333 0.0 6.0 0.00 0.00 0.00 71 1014.1
20260903163022 67 335 0.0 2.0 0.00 0.00 0.00 72 1014.2
20260903161522 67 302 1.0 5.0 0.00 0.00 0.00 73 1014.3
20260903160022 66 243 1.0 4.0 0.00 0.00 0.00 74 1014.4
20260903154523 65 168 2.0 7.0 0.00 0.00 0.00 75 1014.4
20260903153022 64 210 2.0 6.0 0.00 0.00 0.00 77 1014.5
20260903151521 62 180 1.0 7.0 0.00 0.00 0.00 81 1014.6
20260903150023 61 189 0.0 6.0 0.00 0.00 0.00 82 1014.5
20260903144541 61 240 2.0 6.0 0.00 0.00 0.00 83 1014.4
20260903143059 60 217 2.0 5.0 0.00 0.00 0.00 84 1014.4
20260903141557 59 250 1.0 5.0 0.00 0.00 0.00 86 1014.3
20260903140044 58 221 0.0 3.0 0.00 0.00 0.00 87 1014.3
20260903134546 58 198 0.0 3.0 0.00 0.00 0.00 87 1014.2
20260903133043 58 204 1.0 5.0 0.00 0.00 0.00 87 1014.1
20260903131521 58 186 0.0 4.0 0.00 0.00 0.00 87 1014.2
20260903130056 58 195 1.0 5.0 0.00 0.00 0.00 87 1014.3
20260903124555 58 226 1.0 5.0 0.00 0.00 0.00 86 1014.3
20260903123056 58 259 1.0 4.0 0.00 0.00 0.00 85 1014.3
20260903121610 59 262 1.0 4.0 0.00 0.00 0.00 85 1014.2
20260903120111 59 251 0.0 4.0 0.00 0.00 0.00 85 1014.4
20260903114611 59 248 0.0 4.0 0.00 0.00 0.00 85 1014.6
20260903113111 59 255 0.0 3.0 0.00 0.00 0.00 85 1014.6
20260903111513 59 213 0.0 3.0 0.00 0.00 0.00 84 1014.7
20260903110015 59 248 0.0 3.0 0.00 0.00 0.00 84 1014.8
20260903104511 59 232 0.0 4.0 0.00 0.00 0.00 84 1014.7
20260903103011 59 228 1.0 5.0 0.00 0.00 0.00 84 1014.7
20260903101511 59 229 0.0 3.0 0.00 0.00 0.00 85 1014.7
20260903100012 59 221 0.0 3.0 0.00 0.00 0.00 85 1014.7
20260903094614 59 231 0.0 3.0 0.00 0.00 0.00 85 1014.9
20260903093115 59 211 0.0 4.0 0.00 0.00 0.00 85 1014.9
20260903091611 58 229 0.0 4.0 0.00 0.00 0.00 85 1014.9
20260903090110 58 240 1.0 5.0 0.00 0.00 0.00 85 1015.0
20260903084611 58 254 0.0 3.0 0.00 0.00 0.00 84 1015.1
20260903083111 58 255 1.0 5.0 0.00 0.00 0.00 83 1015.1
20260903081611 59 288 1.0 4.0 0.00 0.00 0.00 81 1015.0
20260903080110 59 254 1.0 5.0 0.00 0.00 0.00 80 1015.0
20260903074609 60 248 0.0 2.0 0.00 0.00 0.00 81 1015.0
20260903073110 60 244 0.0 4.0 0.00 0.00 0.00 80 1014.9
20260903071556 60 255 0.0 2.0 0.00 0.00 0.00 78 1015.0
20260903070040 61 248 0.0 0.0 0.00 0.00 0.00 75 1014.9
20260903064540 62 278 0.0 0.0 0.00 0.00 0.00 73 1014.9
20260903063107 62 283 0.0 0.0 0.00 0.00 0.00 72 1014.9
20260903061540 63 315 0.0 2.0 0.00 0.00 0.00 70 1014.9
20260903060039 63 307 0.0 4.0 0.00 0.00 0.00 68 1014.9
20260903054539 64 281 0.0 4.0 0.00 0.00 0.00 66 1014.9
20260903053110 65 283 0.0 1.0 0.00 0.00 0.00 66 1014.9
20260903051609 65 312 0.0 1.0 0.00 0.00 0.00 65 1014.9
20260903050129 65 319 0.0 0.0 0.00 0.00 0.00 65 1015.0
20260903044509 66 293 0.0 0.0 0.00 0.00 0.00 63 1015.0
20260903043039 67 293 0.0 0.0 0.00 0.00 0.00 61 1014.9
20260903041539 67 292 0.0 0.0 0.00 0.00 0.00 59 1014.7
20260903040039 69 288 0.0 2.0 0.00 0.00 0.00 57 1014.5
20260903034538 69 341 1.0 6.0 0.00 0.00 0.00 56 1014.1
20260903033024 69 335 0.0 5.0 0.00 0.00 0.00 55 1014.0
20260903031538 70 338 0.0 0.0 0.00 0.00 0.00 54 1013.9
20260903030038 71 325 0.0 5.0 0.00 0.00 0.00 53 1013.9
20260903024538 71 360 0.0 0.0 0.00 0.00 0.00 53 1014.1
20260903023042 73 352 0.0 5.0 0.00 0.00 0.00 52 1014.1
20260903021538 74 349 0.0 4.0 0.00 0.00 0.00 51 1014.0
20260903020043 76 338 0.0 6.0 0.00 0.00 0.00 50 1014.1
20260903014548 76 217 0.0 6.0 0.00 0.00 0.00 50 1014.1
20260903013038 78 328 3.0 9.0 0.00 0.00 0.00 49 1014.2
20260903011555 78 7 2.0 8.0 0.00 0.00 0.00 48 1014.2
20260903010038 78 311 1.0 8.0 0.00 0.00 0.00 49 1014.3
20260903004541 78 349 0.0 5.0 0.00 0.00 0.00 48 1014.3
20260903003009 79 344 3.0 8.0 0.00 0.00 0.00 46 1014.4
20260903001548 79 35 0.0 8.0 0.00 0.00 0.00 46 1014.5
20260903000050 79 309 2.0 8.0 0.00 0.00 0.00 46 1014.5
20260902234602 80 342 2.0 7.0 0.00 0.00 0.00 44 1014.7
20260902233102 79 328 1.0 11.0 0.00 0.00 0.00 45 1014.7
20260902231608 79 4 1.0 7.0 0.00 0.00 0.00 44 1014.8
20260902224603 79 356 0.0 7.0 0.00 0.00 0.00 47 1015.0
20260902223107 79 41 2.0 11.0 0.00 0.00 0.00 47 1015.1
20260902221602 79 314 1.0 8.0 0.00 0.00 0.00 46 1015.1